Starlink 3895

operational
NORAD ID: 52583 Int'l Des: 2022-051 Owner: SPXS Country: US Constellation: starlink
LEOCIRCULAR

About Starlink 3895

Description loading...

Live Position

Loading 3D Globe...

Upcoming Passes

Altitude History

Altitude vs Time

uPlot chart will show altitude changes over time

Two-Line Element Set

1 52583U 22051AZ 25261.18137730 -.00002013 00000-0 -10836-3 0 9998
2 52583 53.2179 173.5401 0001984 138.6993 221.4149 15.08844627185545
Epoch: Sep 18, 2025 • Age: 18 hours

Current Status

Altitude 541.5 km
Velocity 7.60 km/s
Sub-Earth Point 37.47°N, 18.93°W
Launch Date May 13, 2022
Age 3.3 years
Type internet

Technical Details

Classification Payload
Mass 297.00 kg
Dry Mass 275.00 kg
Total Mass 297.00 kg
Length 0.20 m
Diameter 2.80 m
Span 9.00 m
Shape Box + pan
Manufacturer SPXS
Bus Type Starlink
Phase Status In Orbit
Owner/State SPXS/US

Large Constellations

Loading constellations...